TimeCDT,TemperatureF,Dew PointF,Humidity,Sea Level PressureIn,VisibilityMPH,Wind Direction,Wind SpeedMPH,Gust SpeedMPH,PrecipitationIn,Events,Conditions,WindDirDegrees,DateUTC
12:15 AM,50.0,41.0,71,29.90,10.0,WSW,6.9,-,N/A,,Overcast,240,2013-03-31 05:15:00
12:35 AM,50.0,41.0,71,29.90,7.0,WSW,6.9,-,N/A,,Overcast,240,2013-03-31 05:35:00
12:55 AM,50.0,42.8,76,29.90,7.0,WSW,5.8,-,N/A,,Overcast,240,2013-03-31 05:55:00
1:15 AM,50.0,42.8,76,29.89,5.0,SW,3.5,-,N/A,,Haze,220,2013-03-31 06:15:00
1:35 AM,50.0,42.8,76,29.89,4.0,SW,5.8,-,N/A,,Haze,220,2013-03-31 06:35:00
1:55 AM,50.0,42.8,76,29.89,4.0,Calm,Calm,-,N/A,,Haze,0,2013-03-31 06:55:00
2:15 AM,50.0,42.8,76,29.88,4.0,SW,3.5,-,N/A,,Haze,220,2013-03-31 07:15:00
2:35 AM,50.0,42.8,76,29.89,2.5,West,4.6,-,N/A,,Haze,270,2013-03-31 07:35:00
2:55 AM,50.0,42.8,76,29.88,1.8,West,4.6,-,N/A,,Haze,260,2013-03-31 07:55:00
3:15 AM,50.0,42.8,76,29.87,2.5,West,5.8,-,N/A,,Haze,280,2013-03-31 08:15:00
3:35 AM,50.0,42.8,76,29.88,1.8,West,8.1,-,N/A,,Haze,280,2013-03-31 08:35:00
3:55 AM,50.0,42.8,76,29.88,0.8,West,6.9,-,N/A,,Haze,280,2013-03-31 08:55:00
4:15 AM,50.0,42.8,76,29.88,0.5,West,8.1,-,N/A,,Haze,270,2013-03-31 09:15:00
4:35 AM,50.0,42.8,76,29.88,0.5,West,8.1,-,N/A,,Haze,270,2013-03-31 09:35:00
4:55 AM,50.0,42.8,76,29.88,0.5,West,4.6,-,N/A,,Haze,270,2013-03-31 09:55:00
5:15 AM,50.0,42.8,76,29.87,1.2,West,6.9,-,N/A,,Haze,280,2013-03-31 10:15:00
5:35 AM,48.2,42.8,82,29.87,1.2,WNW,8.1,-,N/A,,Haze,290,2013-03-31 10:35:00
5:55 AM,48.2,42.8,82,29.88,1.0,West,5.8,-,N/A,,Haze,270,2013-03-31 10:55:00
6:15 AM,48.2,42.8,82,29.87,1.2,West,6.9,-,N/A,,Haze,280,2013-03-31 11:15:00
6:35 AM,48.2,42.8,82,29.87,0.5,West,8.1,-,N/A,,Haze,280,2013-03-31 11:35:00
6:55 AM,48.2,42.8,82,29.88,0.5,WNW,6.9,-,N/A,,Haze,290,2013-03-31 11:55:00
7:15 AM,48.2,42.8,82,29.89,0.2,West,5.8,-,N/A,,Haze,260,2013-03-31 12:15:00
7:35 AM,48.2,42.8,82,29.89,0.2,West,5.8,-,N/A,,Haze,270,2013-03-31 12:35:00
7:55 AM,48.2,42.8,82,29.90,0.2,West,5.8,-,N/A,,Haze,270,2013-03-31 12:55:00
8:15 AM,50.0,42.8,76,29.89,0.2,West,8.1,-,N/A,,Haze,270,2013-03-31 13:15:00
8:35 AM,48.2,42.8,82,29.89,0.5,West,8.1,-,N/A,,Haze,280,2013-03-31 13:35:00
8:55 AM,48.2,42.8,82,29.90,0.8,WNW,9.2,-,N/A,,Haze,290,2013-03-31 13:55:00
9:15 AM,48.2,42.8,82,29.90,0.5,WNW,9.2,-,N/A,,Haze,300,2013-03-31 14:15:00
9:35 AM,48.2,42.8,82,29.90,1.8,WNW,8.1,-,N/A,,Haze,290,2013-03-31 14:35:00
9:55 AM,50.0,42.8,76,29.89,4.0,WNW,6.9,-,N/A,,Haze,300,2013-03-31 14:55:00
10:15 AM,51.8,44.6,76,29.88,7.0,West,4.6,-,N/A,,Mostly Cloudy,280,2013-03-31 15:15:00
10:35 AM,53.6,44.6,72,29.87,7.0,WNW,4.6,-,N/A,,Scattered Clouds,290,2013-03-31 15:35:00
10:55 AM,55.4,44.6,67,29.87,10.0,West,5.8,-,N/A,,Scattered Clouds,280,2013-03-31 15:55:00
11:15 AM,55.4,44.6,67,29.88,10.0,WNW,8.1,-,N/A,,Mostly Cloudy,300,2013-03-31 16:15:00
11:35 AM,57.2,44.6,63,29.88,10.0,WNW,11.5,19.6,N/A,,Mostly Cloudy,300,2013-03-31 16:35:00
11:55 AM,57.2,42.8,59,29.87,10.0,WNW,13.8,-,N/A,,Scattered Clouds,300,2013-03-31 16:55:00
12:15 PM,59.0,42.8,55,29.87,10.0,WNW,13.8,-,N/A,,Scattered Clouds,290,2013-03-31 17:15:00
12:35 PM,60.8,41.0,48,29.87,10.0,West,12.7,17.3,N/A,,Clear,280,2013-03-31 17:35:00
12:55 PM,60.8,39.2,45,29.86,10.0,West,12.7,20.7,N/A,,Mostly Cloudy,280,2013-03-31 17:55:00
1:15 PM,62.6,35.6,37,29.86,10.0,WNW,16.1,-,N/A,,Scattered Clouds,290,2013-03-31 18:15:00
1:35 PM,62.6,35.6,37,29.86,10.0,WNW,11.5,23.0,N/A,,Scattered Clouds,300,2013-03-31 18:35:00
1:55 PM,62.6,33.8,34,29.86,10.0,NNW,13.8,20.7,N/A,,Scattered Clouds,330,2013-03-31 18:55:00
2:15 PM,62.6,33.8,34,29.86,10.0,NW,13.8,25.3,N/A,,Scattered Clouds,320,2013-03-31 19:15:00
2:35 PM,60.8,33.8,36,29.87,10.0,NW,18.4,24.2,N/A,,Mostly Cloudy,310,2013-03-31 19:35:00
2:55 PM,62.6,32.0,32,29.87,10.0,NW,16.1,24.2,N/A,,Mostly Cloudy,310,2013-03-31 19:55:00
3:15 PM,62.6,26.6,26,29.87,10.0,NW,17.3,23.0,N/A,,Scattered Clouds,320,2013-03-31 20:15:00
3:35 PM,62.6,28.4,27,29.87,10.0,WNW,17.3,25.3,N/A,,Mostly Cloudy,300,2013-03-31 20:35:00
3:55 PM,60.8,26.6,27,29.87,10.0,NW,16.1,24.2,N/A,,Mostly Cloudy,320,2013-03-31 20:55:00
4:15 PM,60.8,26.6,27,29.87,10.0,WNW,17.3,21.9,N/A,,Scattered Clouds,290,2013-03-31 21:15:00
4:35 PM,62.6,24.8,24,29.88,10.0,WNW,17.3,-,N/A,,Mostly Cloudy,290,2013-03-31 21:35:00
4:55 PM,60.8,24.8,25,29.88,10.0,NW,12.7,19.6,N/A,,Mostly Cloudy,310,2013-03-31 21:55:00
5:15 PM,60.8,21.2,22,29.88,10.0,NW,15.0,24.2,N/A,,Mostly Cloudy,310,2013-03-31 22:15:00
5:35 PM,60.8,17.6,19,29.88,10.0,NNW,13.8,21.9,N/A,,Scattered Clouds,340,2013-03-31 22:35:00
5:55 PM,59.0,12.2,16,29.89,10.0,NNW,12.7,17.3,N/A,,Clear,330,2013-03-31 22:55:00
6:15 PM,57.2,14.0,18,29.89,10.0,NNW,10.4,19.6,N/A,,Clear,330,2013-03-31 23:15:00
6:35 PM,57.2,10.4,16,29.90,10.0,NW,15.0,18.4,N/A,,Clear,320,2013-03-31 23:35:00
7:15 PM,53.6,26.6,35,29.91,10.0,NNW,12.7,18.4,N/A,,Clear,330,2013-04-01 00:15:00
7:35 PM,51.8,26.6,38,29.92,10.0,NNW,11.5,-,N/A,,Clear,330,2013-04-01 00:35:00
8:15 PM,48.2,26.6,43,29.94,10.0,NNW,11.5,16.1,N/A,,Clear,330,2013-04-01 01:15:00
8:35 PM,46.4,26.6,46,29.95,10.0,NNW,10.4,-,N/A,,Clear,340,2013-04-01 01:35:00
8:55 PM,46.4,28.4,50,29.96,10.0,NNW,9.2,16.1,N/A,,Clear,330,2013-04-01 01:55:00
9:15 PM,44.6,28.4,53,29.96,10.0,NNW,10.4,16.1,N/A,,Clear,340,2013-04-01 02:15:00
9:35 PM,44.6,26.6,49,29.97,10.0,NNW,8.1,-,N/A,,Clear,330,2013-04-01 02:35:00
9:55 PM,44.6,26.6,49,29.99,10.0,NNW,10.4,-,N/A,,Clear,330,2013-04-01 02:55:00
10:15 PM,42.8,26.6,53,30.00,10.0,NNW,10.4,-,N/A,,Clear,330,2013-04-01 03:15:00
10:35 PM,42.8,26.6,53,30.00,10.0,NNW,11.5,-,N/A,,Clear,330,2013-04-01 03:35:00
10:55 PM,42.8,26.6,53,30.01,10.0,NNW,10.4,-,N/A,,Scattered Clouds,330,2013-04-01 03:55:00
11:15 PM,42.8,26.6,53,30.01,10.0,NNW,9.2,-,N/A,,Mostly Cloudy,330,2013-04-01 04:15:00
11:35 PM,42.8,26.6,53,30.02,10.0,NW,11.5,17.3,N/A,,Overcast,320,2013-04-01 04:35:00